Regional Weather Roundup
Issued by NWS

Home | Current Version | Previous Version | Text Only | Print | Product List | Glossary On
Versions: 1 2 3 4 5 6 7 8 9 10 11 12 13 14 15 16 17 18 19 20 21 22 23 24 25 26 27 28 29 30 31 32 33 34 35 36 37 38 39 40 41 42 43 44 45 46 47 48 49 50
000
ASHW40 PHFO 291243
RWRHI

WEATHER ROUNDUP FOR HAWAII
NATIONAL WEATHER SERVICE HONOLULU HI
200 AM HST MON AUG 29 2016

THIS IS AN AUTOMATED REPORT THAT HAS NOT BEEN QUALITY CONTROLLED.

NOTE..."FAIR" INDICATES FEW OR NO CLOUDS BELOW 12,000 FEET WITH NO
SIGNIFICANT WEATHER AND/OR OBSTRUCTIONS TO VISIBILITY.

* - THESE SITES REPORT LIMITED FIELDS

HIZ001>004-291300-
KAUAI-NIIHAU-

CITY           SKY/WX    TMP DP  RH WIND       PRES   REMARKS
LIHUE APT      PTCLDY    79  68  69 NE15      30.01F
PORT ALLEN*      N/A     77 N/A N/A E13G18      N/A
POIPU*           N/A     77 N/A N/A NE9G17      N/A
PRINCEVILLE*     N/A     72 N/A N/A S2          N/A
KOKOLE POINT*    N/A     77 N/A N/A MISG        N/A
MOLOAA DAIRY*    N/A     75  68  78 E3G9        N/A
WAIMEA HTS*      N/A     75  63  64 N2          N/A
PUU OPAE*        N/A     66  59  77 CALM        N/A
PUU LUA*       NOT AVBL
MAKAHA RIDGE*    N/A    N/A N/A N/A S1          N/A
$$

HIZ005>011-291300-
OAHU-

CITY           SKY/WX    TMP DP  RH WIND       PRES   REMARKS
HONOLULU       PTCLDY    77  68  73 NE6       29.97F
KALAELOA       PTCLDY    76  68  76 NE5       29.98F
KANEOHE MCB    MOCLDY    79  69  71 E9G18     29.96F
WHEELER FIELD  MOCLDY    73  69  88 CALM      30.00F
BELLOWS*         N/A    N/A N/A N/A NE17        N/A
KAHUKU*          N/A    N/A N/A N/A VRB1        N/A
WHEELER*         N/A    N/A N/A N/A N2          N/A
WAIANAE HARBOR NOT AVBL
DILLINGHAM*      N/A     73  68  83 MISG        N/A
KAHUKU TRN*      N/A     82  75  78 N9G18       N/A
KAWAILOA*        N/A     72  66  83 E9G18       N/A
KII*             N/A     79  70  73 E18G24      N/A
MAKUA RANGE*     N/A     77  66  69 NW9G15      N/A
OAHU FOREST NW   N/A     70  66  88 E20G35      N/A
SCHOFIELD BRK*   N/A     81  77  89 MISG        N/A
SCHOFIELD S*   NOT AVBL
WAIANAE VLY*     N/A     84  75  74 N8G18       N/A  HX  92
KUAOKALA*        N/A     73  68  83 NE16        N/A
HONOULIUULI*   NOT AVBL
MOKUOLOE IS*   NOT AVBL
PALEHUA*         N/A     66  66 100 NE12G18     N/A
WAIAWA PHB*    NOT AVBL
$$

HIZ012>013-291300-
MOLOKAI-

CITY           SKY/WX    TMP DP  RH WIND       PRES   REMARKS
MOLOKAI AIRPT  CLOUDY    78  67  68 N8        29.97F
KALAUPAPA      NOT AVBL
MAKAPULAPAI*     N/A     79  70  73 E14G23      N/A
MOLOKAI 1*       N/A     66  61  82 NE6G15      N/A
PUU ALII*        N/A     60  60 100 NE3G12      N/A
$$

HIZ016-291300-
KAHOOLAWE-

CITY           SKY/WX    TMP DP  RH WIND       PRES   REMARKS
KAHOOLAWE*       N/A     72 N/A N/A E1          N/A
HAKIOAWA*        N/A     72  68  87 MISG      30.38F
HONOKANAIA*      N/A     79  67  67 NE15G28     N/A
KANELOA*         N/A     73  68  83 NE16G31   30.04F
KEALIALALO*    NOT AVBL
LUA MAKIKA*    NOT AVBL
$$

HIZ014>015-291300-
LANAI-

CITY           SKY/WX    TMP DP  RH WIND       PRES   REMARKS
LANAI CITY     MOCLDY    72  67  84 E12       30.01F
LANAI 1*         N/A     72  68  88 NE20G28     N/A
$$

HIZ017>028-291300-
MAUI-

CITY           SKY/WX    TMP DP  RH WIND       PRES   REMARKS
KAHULUI        CLOUDY    76  69  79 NE9       29.96
KAPALUA-W MAUI NOT AVBL
HANA AIRPORT     N/A     75  72  88 E3        30.01S
HANA*            N/A     75 N/A N/A S3          N/A
HALEAKALA SUMM   N/A     43  41  93 SE5G21      N/A
MAALAEA BAY*   NOT AVBL
HALEAKALA*     NOT AVBL
KAUPO GAP*       N/A     68  66  94 VRB5G18     N/A
KULA 1*          N/A     55  55 100 E5          N/A
$$

HIZ023>026-291300-
BIG ISLAND OF HAWAII COAST AND LOWER SLOPES-

CITY           SKY/WX    TMP DP  RH WIND       PRES   REMARKS
KAILUA KONA    CLEAR     82  67  60 NE12      29.92F
HILO           MOCLDY    73  68  84 SW8       29.98F
HONOKAA*         N/A     70 N/A N/A VRB1        N/A
KAWAIHAE MWT*    N/A     79 N/A N/A N3          N/A
KAWAIHAE*        N/A     79 N/A N/A NE3       29.92S
SOUTH POINT*     N/A     72 N/A N/A N15G21      N/A
UPOLU AIRPORT* NOT AVBL
KAMUELA*       MOSUNNY   64  63  94 N16       30.06S
HAKALAU*         N/A     54  54  99 S2          N/A
KALOKO-HONOKO*   N/A     79  66  65 NE6       29.91S
PALI 2*          N/A     64  61  88 N1G12       N/A
KEALAKOMO*       N/A     75  68  78 NE8G15      N/A
KAUPULEHU*       N/A     72  63  73 SW7         N/A
KAPAPALA*        N/A     67  66  98 N2          N/A
LOWER KAHUKU*    N/A     59  59 100 N3G12       N/A
PUHE CS*         N/A     79  70  73 N2          N/A
PUHO CS*         N/A     73  69  88 E2          N/A
PTA KEAMUKU*     N/A     61  55  82 CALM        N/A
WAIKOLOA*        N/A     73  64  73 E16G25      N/A
$$

HIZ027>028-291300-
BIG ISLAND OF HAWAII INTERIOR AND SUMMMITS-

CITY           SKY/WX    TMP DP  RH WIND       PRES   REMARKS
BRADSHAW FIELD CLOUDY    51  51  97 SE2       30.29F
MK VISITOR CEN   N/A     46  39  76 VRB3        N/A
MAUNA KEA*       N/A     36   7  30 SE7         N/A  WCI  30
MAUNA LOA*       N/A     39  34  81 MISG        N/A
MAUNA LOA 1*   NOT AVBL
PTA KIPUKA*      N/A     55  55 100 CALM        N/A
PTA RANGE 17*    N/A     72  66  83 SE8G14      N/A
PTA WEST*        N/A     75  70  83 SW2G15      N/A
NENE CABIN*      N/A     54  54 100 NE3         N/A
AHUMOA*          N/A     53  51  93 E3          N/A
PTA PORTABLE*  NOT AVBL
PUU MALI*        N/A     54  54 100 E3          N/A
$$

HIC003-291300-
NORTHWEST ISLANDS-

CITY           SKY/WX    TMP DP  RH WIND       PRES   REMARKS
MIDWAY ISLAND  FOG       79  73  83 CALM      29.96F VSB 0
MIDWAY NOS*      N/A     79 N/A N/A MISG      29.95F
FRENCH FRIGATE NOT AVBL
$$

PHZ110>124-180-291300-
BUOY REPORTS

STATION/POSITION TIME  TEMP    WIND        PRES    WAVE   SWELL
                       AIR SEA DIR/SP/G            HT/PER HT/DIR
                 (UTC) (F)     (DEG/KT/KT) (MB)    (FT/S) (FT/D)
BUOY 51001       NOT AVBL
BUOY 51101       1150   79 81   90/ 16/ 19 1016.6F   7/ 8   5/100
BUOY 51100       NOT AVBL
BUOY 51002       NOT AVBL
BUOY 51003       1150   81 83   80/ 12/ 14 1013.0F   5/ 6   5/ 60
BUOY 51004       1150   80 82   50/ 16/ 17 1013.0F   6/ 7   5/ 80
BARBERS PT BUOY  NOT AVBL
WAIMEA BAY BUOY  1204      81                N/A     5/ 8
KAILUA BAY BUOY  1211      81                N/A     6/ 8   2/ 80
LANAI BUOY       1215      83                N/A     2/12   2/180
BARBERS PT 2     NOT AVBL
PAUWELA MAUI     1209      80                N/A     5/ 7   2/ 20
HILO             1212      81                N/A     6/ 8   2/100
KANEOHE BAY BUOY 1206      80                N/A     6/ 8
HANALEI KAUAI    NOT AVBL
KAHULUI HARBOR   1200   77 81   50/ 12/ 14 1014.6F
HONOLULU HARBOR  1200   79 81   60/  1/  5 1015.4F
KILO NALU        NOT AVBL
HILO HARBOR      1200   73 79  190/  3/  5 1014.9F
MOKUOLOE         1100   79 81   80/ 10/ 13 1015.8F
NAWILIWILI       1200   78 82   50/ 10/ 13 1015.7F
WHOTS BUOY       NOT AVBL
BUOY 51028       NOT AVBL
$$

......................KEY........................................
  SKY/WX - SKY CONDITIONS/PRESENT WEATHER
  TMP    - TEMPERATURE IN FAHRENHEIT
  DWPT   - DEWPOINT IN FAHRENHEIT
  RH     - RELATIVE HUMIDITY IN PERCENT
  WIND   - DIRECTION AND SPEED /MPH FOR ISLANDS...KTS FOR BUOYS/
  PRES   - MEAN SEA LEVEL PRESSURE IN INCHES OF HG
  VSB    - VISIBILITY IN MILES
  HX     - HEAT INDEX
  WCI    - WIND CHILL INDEX
  VRB    - VARIABLE WIND DIRECTION
  N/A    - NOT AVAILABLE




USA.gov is the U.S. government's official web portal to all federal, state and local government web resources and services.